Flag for United Kingdom Weather past 2 weeks in Whitstable, England, United Kingdom

Now
57 °F

Cool.


Feels Like: 55 °F
Forecast: 55 / 60 °F
Wind: 8 mph from Southwest

Location: Manston

Current Time: Oct 25, 2014 at 1:37:10 AM

Latest Report: Oct 25, 2014 at 12:00 AM


Visibility: N/A

Pressure: 29.98 "Hg

Humidity: 95%

Dew point: 55 °F

Location of WhitstableLocation

Historic Weather in Whitstable — Graph

°F

Whitstable temperature yesterday

Maximum temperature yesterday: 60 °F (at 2:00 PM)
Minimum temperature yesterday: 56 °F (at 7:00 AM)
Average temperature yesterday: 58 °F

Past Weeks' High & Low Weather Summary

 TemperatureHumidityPressure
High70 °F (Oct 18, 3:00 PM)99% (Oct 14, 10:00 AM)30.27 "Hg (Oct 14, 10:00 AM)
Low47 °F (Oct 12, 8:00 AM)54% (Oct 21, 2:00 PM)29.44 "Hg (Oct 13, 6:00 AM)
Average57 °F86%29.86 "Hg
* Reported Midnight between Oct 9 and Oct 10 — Midnight between Oct 24 and Oct 25, Whitstable, Weather by CustomWeather, © 2014

Note: Actual official high and low records may vary slightly from our data, if they occured in-between our weather recording intervals... More about our weather records

Advertising

Whitstable weather history for previous 24 hours

 ConditionsComfort  
Time TempWeatherWind HumidityBarometerVisibility
12:00 AM
Oct 25
57 °FCool.8 mph95%29.98 "HgN/A
11:00 PM
Oct 24
58 °FCool.10 mph93%29.97 "HgN/A
10:00 PM58 °FCool.14 mph94%29.96 "HgN/A
9:00 PM58 °FCool.9 mph94%29.94 "HgN/A
8:00 PM59 °FCool.10 mph94%29.94 "HgN/A
7:00 PM59 °FCool.10 mph95%29.93 "HgN/A
6:00 PM59 °FLight rain. Overcast.10 mph97%29.92 "HgN/A
5:00 PM59 °FLots of rain. Cloudy.9 mph97%29.93 "HgN/A
4:00 PM60 °FCool.10 mph96%29.94 "HgN/A
3:00 PM60 °FCool.10 mph94%29.95 "HgN/A
2:00 PM60 °FCool.13 mph92%29.96 "HgN/A
1:00 PM60 °FCool.7 mph94%29.98 "HgN/A
12:00 PM60 °FCool.8 mph94%30.00 "HgN/A
11:00 AM59 °FCool.8 mph98%30.01 "HgN/A
10:00 AM58 °FLight rain. Cloudy.5 mph98%30.01 "HgN/A
9:00 AM57 °FLight freezing rain. Cloudy.8 mph98%30.01 "HgN/A
8:00 AM56 °FRain showers. Cloudy.6 mph98%30.00 "HgN/A
7:00 AM56 °FRain showers. Overcast.6 mph98%30.00 "HgN/A
6:00 AM57 °FLight rain. Overcast.8 mph98%30.00 "HgN/A
5:00 AM58 °FDrizzle. Overcast.9 mph98%30.01 "HgN/A
4:00 AM58 °FCool.12 mph95%30.01 "HgN/A
3:00 AM58 °FRain. Overcast.12 mph96%30.03 "HgN/A
2:00 AM58 °FLots of rain. Overcast.10 mph97%30.04 "HgN/A
1:00 AM58 °FCool.13 mph93%30.05 "HgN/A
Weather by CustomWeather, © 2014

See weather overviewHow to use our weather pages